Terminal Aerodrome Forecast
Issued by NWS Wilmington, OH

Current Version | Previous Version | Text Only | Print | Product List | Glossary Off
Versions: 1 2 3 4 5 6 7 8 9 10 11 12 13 14 15 16 17 18 19 20 21 22 23 24 25 26 27

000
FTUS41 KILN 221600 AAB
TAFILN
TAF AMD
KILN 221601Z 2216/2312 36006KT P6SM BKN027
     FM221700 33008KT P6SM SCT025
     FM230100 VRB03KT P6SM SKC=

USA.gov is the U.S. government's official web portal to all federal, state and local government web resources and services.